Wind_Speed
12 10 9 9 7 6 6 5 5 4 4 4 3 3 2 1 0 1 2 2 2 2 3 3 3 4 5 5 6 7 7 7 8 8 8 7 8 8 9 9 9 9 9
11 11 10 10 9 8 7 5 4 4 4 4 3 3 2 1 1 1 1 1 1 2 3 3 4 4 5 6 7 7 8 8 8 8 8 8 8 8 8 8 9 9 10
11 10 9 9 9 7 6 5 4 5 4 3 3 3 2 2 2 2 2 2 2 2 3 4 4 5 6 6 7 8 8 8 9 8 9 8 8 8 8 8 9 10 9
9 8 8 8 8 8 7 6 6 5 4 3 3 3 3 2 2 2 2 2 3 3 4 5 5 6 6 7 7 8 8 9 9 8 9 9 8 8 8 9 9 10 10
8 8 7 7 7 7 7 6 6 6 5 4 4 4 3 2 2 2 2 2 3 3 4 5 5 6 6 6 7 7 8 8 8 8 8 9 9 9 9 10 10 10 10
7 7 7 6 6 6 6 6 6 5 5 5 4 4 3 2 2 2 2 2 3 4 4 5 5 6 6 6 7 7 8 8 9 9 8 8 8 8 9 9 10 10 10
6 5 5 5 6 6 6 6 5 5 5 4 4 4 4 3 4 3 3 3 4 4 5 5 6 6 7 7 8 8 8 9 9 9 8 8 8 9 9 9 9 10 10
5 5 5 5 5 5 6 6 6 5 4 4 4 4 4 4 4 4 3 4 5 6 6 6 6 6 8 9 9 9 10 11 10 10 9 10 9 9 10 10 10 10 10
4 5 5 4 4 4 5 5 5 5 5 5 5 5 4 4 5 5 5 5 6 7 7 8 9 9 10 11 10 11 11 12 11 10 10 10 10 10 10 11 11 10 10
5 5 5 4 4 4 4 4 5 5 5 6 6 5 5 5 6 5 5 6 7 8 9 10 11 11 12 12 12 12 12 12 12 10 10 11 11 11 11 11 11 11 11
5 5 6 5 4 4 4 5 5 5 6 6 6 6 6 6 6 6 7 7 8 9 10 11 12 13 14 14 14 14 14 14 13 12 12 12 12 12 11 12 12 13 14
6 7 7 6 6 6 6 6 6 6 7 7 7 7 8 8 8 9 9 10 10 11 12 13 14 15 16 17 17 17 16 15 14 15 14 13 14 14 14 14 14 14 14
8 8 8 8 8 7 7 8 8 9 9 9 8 9 9 10 10 10 11 12 12 13 14 15 16 17 17 17 17 18 17 17 16 16 15 15 15 16 16 16 16 16 15
10 10 9 10 10 9 9 10 10 10 10 10 10 11 11 12 12 13 13 14 14 15 15 16 16 17 17 17 17 17 17 17 17 17 17 17 18 18 17 17 16 17 17
11 11 11 11 11 11 11 12 12 12 12 12 13 13 14 14 14 15 15 16 16 15 15 16 17 18 18 18 17 17 17 18 17 18 18 19 19 19 19 19 18 19 19
11 12 12 12 12 12 13 13 14 14 14 14 15 15 15 15 15 16 17 18 18 18 17 18 19 19 19 19 18 19 19 19 19 19 19 19 19 20 20 20 20 20 20
13 13 14 14 14 14 14 15 15 15 15 15 16 16 16 16 17 18 18 19 19 19 19 19 20 20 19 19 20 20 20 20 20 20 19 20 21 21 21 21 21 21 21
15 15 16 16 16 16 16 16 17 16 17 17 17 18 18 18 18 19 19 20 20 21 20 20 21 22 22 21 21 22 21 21 20 20 20 21 21 22 22 22 21 21 22
17 16 17 17 17 17 17 17 17 17 18 18 18 19 19 19 20 20 20 21 21 21 21 20 21 22 23 23 23 23 22 22 21 21 21 21 21 21 22 22 22 22 22
19 18 18 18 18 18 18 18 18 18 19 19 20 21 21 21 21 21 21 22 22 22 22 22 22 23 24 24 24 23 22 22 22 22 22 22 22 23 23 23 23 23 23
21 20 20 20 21 20 20 19 19 20 21 21 21 22 22 22 22 22 23 23 23 23 23 24 24 24 24 25 24 24 23 22 23 23 22 23 23 23 23 23 23 23 24
22 22 22 21 22 22 22 21 22 22 22 22 23 23 23 23 24 24 23 24 24 24 25 25 25 24 25 25 24 24 24 24 24 24 25 24 23 23 23 23 24 23 23
23 23 23 23 23 23 24 24 24 24 24 24 25 25 25 25 25 25 25 25 25 26 26 26 26 26 26 25 25 25 25 26 25 25 25 24 24 24 24 25 24 25 24
23 23 24 25 25 25 26 26 26 26 26 26 27 27 27 27 26 26 27 27 27 27 27 27 27 27 27 27 26 26 26 27 27 27 27 26 26 26 26 26 25 25 25
25 25 25 25 24 25 26 26 26 27 27 27 27 27 27 27 28 28 28 28 28 28 28 28 28 28 28 28 29 29 29 30 29 29 28 27 26 26 27 26 26 25 25
26 26 27 26 25 25 26 26 27 28 28 29 28 28 28 28 29 29 29 29 29 29 29 29 29 29 30 30 30 31 30 30 30 30 29 29 28 28 27 27 27 26 26
Wind_Direction
66 67 73 72 72 80 82 87 89 90 91 87 88 100 110 104 44 200 223 229 237 265 287 289 292 293 300 305 307 301 295 297 302 303 303 299 290 282 280 277 273 268 266
65 69 70 67 64 68 69 71 75 67 66 74 81 82 69 30 354 329 250 229 258 286 307 307 301 304 308 308 311 309 306 308 310 309 305 302 291 283 282 279 276 274 269
62 62 62 60 56 57 60 63 64 60 64 66 71 64 45 29 359 342 317 307 313 319 322 322 313 305 310 311 309 310 311 313 313 314 309 305 298 290 286 281 278 274 273
60 57 54 53 52 53 57 58 59 52 49 49 53 51 44 26 347 327 314 314 321 325 323 319 319 315 316 315 313 315 315 313 311 311 308 304 304 298 290 284 281 276 273
55 52 48 47 44 47 47 49 52 47 43 40 39 38 36 27 7 353 339 326 330 327 316 320 320 314 316 320 316 318 319 317 311 308 308 303 303 300 295 288 286 284 276
45 41 41 43 39 38 36 39 43 41 42 37 32 25 14 3 350 349 351 344 336 323 315 306 302 309 317 320 319 318 317 315 311 309 311 304 303 302 297 291 290 289 282
30 31 31 33 35 33 31 29 33 35 34 31 25 15 358 343 337 335 347 340 331 318 308 307 306 311 317 318 317 320 318 314 313 313 310 303 300 298 297 297 292 288 282
12 17 19 18 19 19 19 18 19 23 21 8 1 356 355 339 329 328 326 317 318 317 309 308 311 314 314 316 316 318 319 315 312 307 304 302 300 299 294 292 292 286 278
2 8 9 9 10 9 6 3 3 4 1 358 350 344 341 340 320 312 315 311 313 317 316 316 311 310 310 312 313 312 309 309 302 299 299 299 294 293 291 290 291 288 280
355 356 355 352 353 354 351 350 353 344 344 344 345 343 337 334 325 320 315 309 307 306 306 310 312 310 308 311 309 306 304 302 299 294 294 293 292 289 288 289 287 283 278
338 337 337 332 329 333 329 326 328 328 326 325 328 328 327 323 317 312 310 304 304 304 303 306 308 311 311 307 304 302 301 300 298 295 292 292 288 287 289 290 286 284 280
321 320 321 321 317 317 316 315 313 316 314 313 314 315 316 317 316 311 308 304 302 301 303 303 304 306 307 307 305 301 298 297 298 295 290 289 287 285 285 284 284 285 284
308 311 310 312 311 311 310 311 310 309 305 304 303 305 305 306 308 308 307 304 303 304 303 303 302 302 305 305 304 305 302 299 296 293 292 290 287 285 284 284 282 282 282
300 302 304 307 305 302 300 302 303 304 303 302 301 301 300 301 302 305 303 302 300 299 301 303 303 301 303 303 300 303 303 302 295 291 289 287 285 285 284 283 282 282 280
298 301 304 302 299 295 293 295 295 295 295 295 296 297 298 298 298 300 300 299 299 298 298 301 303 302 302 303 300 302 302 304 301 294 289 286 285 285 284 285 285 282 279
289 292 295 296 296 294 293 291 292 290 287 289 292 293 294 296 295 295 294 297 301 300 296 297 299 299 300 300 301 300 300 300 300 298 290 287 286 286 285 285 285 282 279
285 287 290 292 292 291 291 291 289 289 287 288 290 291 293 292 290 294 296 298 300 302 299 297 297 297 299 299 299 298 298 297 296 295 292 290 287 285 285 285 284 281 278
286 285 287 287 289 289 290 289 288 287 286 287 288 288 288 287 289 292 294 295 296 298 300 299 296 297 298 297 298 297 296 296 296 294 294 292 290 286 285 285 284 281 278
287 287 287 287 289 291 290 290 289 288 287 287 287 287 288 289 290 290 292 293 294 297 297 298 297 299 300 299 297 296 295 293 293 293 292 293 291 287 286 287 286 282 280
285 288 288 289 289 290 290 289 288 288 287 287 287 287 287 288 289 289 289 290 292 293 294 295 298 298 298 300 299 297 296 295 294 292 292 292 292 289 287 286 285 282 279
288 285 286 286 287 288 290 289 288 288 287 286 286 286 286 286 286 286 287 288 289 291 291 292 294 296 297 298 298 296 296 295 294 294 295 293 292 293 291 288 286 284 281
289 284 283 283 284 286 288 288 287 287 286 286 286 286 287 287 287 286 286 287 288 289 290 290 292 294 295 296 295 295 294 293 293 293 293 292 291 291 291 290 289 287 285
289 287 285 283 283 284 286 286 286 285 284 285 285 286 286 287 287 287 287 287 287 288 288 289 289 291 292 293 292 293 293 294 293 293 292 291 291 290 290 290 289 287 286
290 290 288 285 284 284 284 284 284 283 283 283 283 283 284 285 286 287 287 288 288 288 288 288 289 289 289 291 292 292 292 294 294 293 291 289 290 291 289 287 287 286 283
287 287 289 287 285 285 285 285 285 284 284 283 282 283 284 285 285 286 287 288 287 287 287 287 286 286 287 288 290 291 292 293 293 292 290 289 288 290 290 288 287 285 283
287 287 289 288 284 285 286 285 285 284 283 282 282 282 282 283 284 286 286 286 287 287 287 287 286 286 286 287 288 290 291 291 291 290 289 288 287 288 289 290 289 286 283
Height
5887 5886 5886 5886 5885 5885 5885 5884 5884 5884 5884 5884 5883 5883 5883 5883 5883 5882 5882 5882 5882 5881 5881 5880 5879 5878 5877 5877 5876 5875 5874 5873 5872 5870 5869 5868 5867 5866 5866 5865 5865 5864 5864
5889 5888 5888 5887 5886 5886 5885 5885 5885 5885 5885 5884 5884 5884 5883 5883 5883 5882 5882 5882 5881 5881 5880 5879 5878 5877 5876 5876 5874 5873 5872 5871 5870 5868 5867 5866 5865 5864 5863 5863 5862 5862 5861
5890 5889 5889 5888 5887 5887 5886 5886 5886 5885 5885 5885 5884 5884 5883 5883 5882 5882 5881 5881 5881 5880 5879 5878 5877 5876 5875 5874 5873 5872 5870 5869 5868 5867 5865 5864 5863 5862 5861 5861 5860 5860 5859
5891 5891 5890 5889 5889 5888 5887 5887 5886 5886 5885 5885 5884 5883 5883 5882 5881 5881 5881 5880 5880 5879 5878 5877 5876 5875 5874 5873 5872 5870 5869 5867 5866 5865 5863 5862 5861 5860 5859 5858 5858 5857 5856
5893 5892 5891 5891 5890 5889 5888 5888 5887 5886 5885 5885 5884 5883 5882 5882 5881 5880 5880 5879 5878 5878 5877 5876 5875 5874 5873 5871 5870 5868 5867 5865 5864 5862 5861 5860 5859 5857 5856 5856 5855 5854 5853
5894 5893 5892 5892 5891 5890 5889 5888 5887 5886 5886 5885 5884 5883 5882 5882 5881 5880 5879 5878 5877 5876 5875 5874 5874 5872 5871 5870 5868 5866 5865 5863 5861 5860 5858 5857 5856 5855 5854 5853 5852 5851 5850
5894 5893 5893 5892 5891 5890 5889 5888 5887 5886 5885 5884 5884 5883 5882 5881 5880 5879 5878 5877 5876 5875 5874 5873 5872 5871 5869 5868 5866 5864 5863 5861 5859 5858 5856 5854 5853 5852 5851 5850 5849 5848 5847
5894 5893 5892 5891 5890 5889 5889 5888 5887 5886 5885 5884 5883 5882 5881 5881 5879 5878 5877 5876 5875 5874 5873 5871 5870 5869 5867 5866 5864 5862 5861 5859 5857 5855 5853 5851 5850 5849 5848 5847 5846 5845 5844
5893 5892 5891 5890 5889 5889 5888 5887 5886 5885 5884 5883 5882 5881 5880 5879 5878 5877 5876 5875 5874 5872 5871 5869 5868 5866 5865 5863 5861 5860 5858 5856 5854 5852 5850 5849 5847 5846 5845 5844 5843 5842 5841
5892 5892 5890 5889 5888 5888 5887 5886 5885 5884 5883 5882 5881 5880 5879 5877 5876 5876 5875 5873 5872 5871 5869 5868 5866 5864 5862 5860 5859 5857 5854 5852 5850 5848 5847 5846 5844 5843 5842 5841 5839 5838 5838
5891 5890 5889 5888 5887 5886 5885 5884 5883 5882 5881 5881 5879 5878 5877 5876 5875 5874 5872 5871 5870 5868 5867 5865 5863 5861 5859 5857 5855 5853 5851 5849 5847 5845 5843 5842 5841 5840 5838 5837 5836 5835 5834
5890 5889 5888 5886 5885 5884 5883 5882 5881 5880 5879 5878 5877 5876 5875 5874 5873 5871 5870 5869 5867 5866 5864 5862 5860 5858 5856 5854 5852 5849 5847 5845 5843 5841 5840 5838 5837 5836 5835 5833 5832 5831 5830
5888 5887 5885 5884 5883 5881 5881 5880 5879 5878 5876 5875 5874 5873 5872 5871 5870 5869 5867 5866 5864 5862 5860 5859 5857 5855 5852 5850 5847 5845 5843 5841 5839 5837 5835 5834 5833 5831 5830 5829 5828 5827 5826
5885 5883 5882 5881 5880 5879 5878 5877 5876 5875 5873 5872 5871 5870 5869 5868 5866 5865 5863 5862 5860 5859 5857 5855 5853 5850 5848 5846 5843 5841 5839 5836 5834 5832 5831 5829 5828 5827 5826 5824 5823 5822 5822
5882 5880 5879 5878 5876 5875 5874 5873 5872 5871 5870 5869 5867 5866 5865 5863 5862 5861 5859 5858 5856 5854 5853 5850 5848 5846 5844 5841 5839 5837 5834 5832 5830 5828 5826 5824 5823 5822 5820 5819 5818 5817 5816
5878 5877 5875 5874 5872 5871 5870 5869 5868 5867 5865 5864 5863 5862 5861 5859 5857 5856 5854 5853 5851 5849 5848 5846 5843 5841 5839 5836 5834 5832 5830 5827 5825 5823 5821 5819 5817 5816 5815 5814 5812 5811 5810
5874 5872 5871 5869 5868 5867 5865 5864 5863 5862 5861 5859 5858 5857 5855 5854 5853 5851 5849 5848 5846 5844 5842 5840 5838 5835 5833 5831 5829 5826 5824 5822 5820 5818 5815 5813 5812 5810 5809 5807 5806 5805 5804
5869 5867 5866 5865 5863 5862 5861 5859 5858 5857 5856 5854 5853 5852 5850 5849 5847 5846 5844 5842 5840 5838 5836 5835 5832 5830 5828 5825 5823 5821 5819 5816 5814 5812 5810 5808 5806 5804 5803 5801 5800 5798 5798
5864 5862 5861 5860 5858 5857 5855 5854 5853 5851 5850 5849 5847 5846 5845 5843 5842 5840 5838 5836 5834 5832 5830 5828 5827 5825 5822 5820 5817 5815 5812 5811 5808 5806 5804 5802 5800 5798 5797 5795 5793 5792 5791
5858 5857 5856 5854 5853 5851 5850 5848 5847 5846 5844 5843 5841 5840 5838 5837 5835 5833 5832 5830 5828 5826 5824 5822 5820 5818 5816 5814 5811 5808 5806 5804 5802 5800 5798 5796 5794 5792 5790 5788 5787 5786 5784
5853 5851 5850 5848 5847 5845 5844 5842 5840 5839 5838 5836 5835 5833 5831 5829 5828 5826 5825 5823 5821 5819 5817 5815 5813 5811 5809 5807 5805 5802 5800 5797 5796 5794 5791 5789 5787 5785 5783 5781 5780 5778 5777
5846 5845 5843 5841 5840 5838 5837 5835 5833 5832 5831 5829 5828 5826 5824 5822 5820 5819 5817 5815 5814 5812 5810 5808 5806 5804 5802 5800 5797 5795 5793 5791 5789 5787 5784 5782 5780 5778 5776 5775 5773 5772 5770
5839 5838 5836 5834 5833 5831 5829 5827 5826 5824 5823 5821 5820 5818 5816 5814 5812 5811 5809 5807 5806 5804 5802 5800 5798 5797 5795 5793 5790 5788 5786 5784 5782 5780 5777 5775 5773 5771 5769 5768 5766 5765 5763
5832 5831 5829 5827 5825 5823 5821 5819 5817 5816 5814 5813 5811 5810 5808 5806 5804 5802 5801 5799 5797 5795 5793 5792 5790 5788 5786 5784 5782 5780 5778 5776 5774 5772 5769 5768 5766 5764 5762 5760 5758 5757 5755
5825 5823 5821 5818 5816 5815 5812 5811 5809 5807 5806 5804 5802 5801 5799 5798 5796 5794 5793 5791 5789 5787 5785 5783 5781 5779 5777 5775 5773 5772 5769 5767 5765 5763 5761 5759 5757 5756 5754 5752 5750 5748 5747
5817 5815 5812 5810 5808 5806 5804 5802 5800 5799 5797 5795 5794 5792 5790 5789 5787 5785 5784 5782 5780 5779 5776 5774 5772 5770 5768 5766 5764 5762 5760 5758 5755 5754 5752 5750 5749 5747 5746 5744 5742 5740 5738